Location: Austin
(30.3000°N, 97.7500°W)
Time: 03:19:29
(UTC-05:00)

TIMED - Pass Details

Date: 18 March 2023
Orbit: 597 x 601 km, 74.1° (Epoch: 01 April)

Event Time Altitude Azimuth Distance (km) Brightness Sun altitude
Rises 20:15:05 0° 188° (S) 2,828 8.0 -8.1°
Reaches altitude 10° 20:17:18 10° 185° (S) 1,930 7.1 -8.6°
Maximum altitude 20:21:34 64° 104° (ESE) 665 4.5 -9.5°
Drops below altitude 10° 20:25:52 10° 23° (NNE) 1,945 6.9 -10.5°
Sets 20:28:07 0° 20° (NNE) 2,851 7.8 -11.0°
